Total_Precipitation_Accumulation
0.30 0.31 0.31 0.28 0.26 0.43 0.64 0.77 0.65 0.76 0.84 0.64 0.45 0.37 0.38 0.51 0.69 0.76 0.66 0.67 0.58 0.51 0.61 0.72 0.59 0.47 0.41 0.34 0.29 0.27 0.23 0.24 0.22 0.16 0.13 0.15 0.17 0.18 0.20 0.25 0.26 0.24 0.22
0.51 0.54 0.52 0.50 0.48 0.58 0.74 0.85 0.83 0.94 0.83 0.76 0.47 0.44 0.47 0.53 0.66 0.70 0.62 0.75 0.66 0.51 0.51 0.60 0.59 0.52 0.43 0.37 0.30 0.25 0.19 0.18 0.17 0.12 0.09 0.09 0.11 0.11 0.15 0.21 0.24 0.22 0.16
0.71 0.74 0.64 0.60 0.70 0.85 0.91 0.87 0.85 0.89 0.72 0.69 0.55 0.62 0.59 0.51 0.45 0.43 0.44 0.49 0.53 0.48 0.38 0.38 0.46 0.48 0.46 0.46 0.38 0.31 0.22 0.14 0.10 0.07 0.06 0.04 0.03 0.03 0.06 0.10 0.15 0.17 0.13
0.79 0.88 0.69 0.58 0.80 0.95 0.95 0.91 0.81 0.84 0.80 0.78 0.70 0.64 0.65 0.61 0.43 0.36 0.34 0.32 0.34 0.31 0.31 0.33 0.34 0.38 0.49 0.54 0.50 0.46 0.36 0.21 0.11 0.07 0.04 0.03 0.02 0.02 0.01 0.03 0.07 0.10 0.08
0.82 0.97 0.81 0.78 0.93 0.94 0.86 0.84 0.94 1.08 0.98 0.94 0.92 0.76 0.62 0.51 0.41 0.33 0.26 0.20 0.22 0.28 0.35 0.38 0.31 0.31 0.47 0.63 0.65 0.63 0.55 0.37 0.21 0.13 0.10 0.07 0.05 0.03 0.01 0.01 0.03 0.05 0.05
0.66 0.83 0.74 0.75 0.93 0.92 0.82 0.88 0.95 1.02 0.89 0.93 0.92 0.66 0.50 0.37 0.33 0.27 0.20 0.16 0.14 0.12 0.20 0.32 0.41 0.34 0.39 0.53 0.63 0.69 0.68 0.56 0.38 0.25 0.20 0.15 0.11 0.07 0.03 0.01 0.01 0.02 0.03
0.58 0.73 0.65 0.73 0.83 0.77 0.72 0.75 0.80 0.82 0.69 0.94 1.00 0.57 0.29 0.22 0.17 0.14 0.16 0.14 0.09 0.10 0.13 0.21 0.30 0.37 0.38 0.40 0.53 0.57 0.74 0.74 0.58 0.39 0.28 0.22 0.18 0.13 0.08 0.04 0.02 0.02 0.03
0.66 0.67 0.67 0.68 0.69 0.68 0.60 0.57 0.66 0.66 0.54 0.77 0.86 0.71 0.38 0.20 0.10 0.05 0.08 0.09 0.11 0.15 0.15 0.17 0.24 0.32 0.33 0.40 0.51 0.39 0.47 0.66 0.67 0.59 0.45 0.32 0.27 0.22 0.15 0.11 0.08 0.06 0.04
0.90 0.86 0.81 0.74 0.67 0.67 0.62 0.57 0.60 0.62 0.52 0.53 0.69 0.84 0.60 0.31 0.22 0.11 0.13 0.19 0.26 0.31 0.24 0.23 0.27 0.33 0.36 0.44 0.52 0.58 0.36 0.47 0.65 0.83 0.74 0.52 0.34 0.23 0.18 0.18 0.16 0.12 0.07
1.11 1.00 0.88 0.73 0.61 0.57 0.58 0.53 0.53 0.58 0.59 0.50 0.51 0.62 0.65 0.62 0.55 0.26 0.12 0.17 0.34 0.40 0.36 0.31 0.34 0.38 0.40 0.48 0.63 0.91 0.77 0.59 0.63 0.85 0.91 0.77 0.54 0.35 0.27 0.27 0.37 0.35 0.20
0.89 0.76 0.69 0.63 0.54 0.48 0.46 0.50 0.56 0.60 0.59 0.54 0.51 0.52 0.58 0.68 0.68 0.56 0.30 0.28 0.35 0.34 0.33 0.34 0.39 0.47 0.53 0.65 0.90 1.12 1.29 1.07 0.88 0.76 0.75 0.72 0.67 0.55 0.45 0.47 0.71 0.84 0.66
0.49 0.47 0.46 0.45 0.43 0.42 0.41 0.42 0.48 0.53 0.55 0.57 0.60 0.62 0.66 0.69 0.71 0.79 0.66 0.57 0.52 0.44 0.44 0.52 0.59 0.72 0.80 0.87 0.98 1.17 1.16 1.17 1.12 1.00 0.90 0.77 0.67 0.62 0.61 0.66 0.86 1.06 1.15
0.33 0.35 0.37 0.39 0.38 0.39 0.43 0.49 0.50 0.51 0.55 0.61 0.63 0.70 0.78 0.80 0.85 0.92 0.88 0.77 0.72 0.70 0.75 0.77 0.77 0.88 0.86 0.91 0.97 0.88 0.71 0.76 0.80 0.80 0.76 0.71 0.64 0.63 0.63 0.63 0.76 0.96 1.18
0.40 0.42 0.47 0.51 0.49 0.46 0.43 0.50 0.51 0.53 0.59 0.64 0.63 0.72 0.79 0.79 0.86 0.95 0.97 0.95 0.84 0.87 1.00 1.04 0.88 0.81 0.81 0.86 0.89 0.76 0.66 0.57 0.44 0.38 0.35 0.37 0.39 0.44 0.51 0.61 0.69 0.75 0.83
0.47 0.51 0.57 0.64 0.64 0.62 0.61 0.61 0.60 0.64 0.74 0.79 0.78 0.79 0.82 0.81 0.84 0.92 0.99 1.00 0.94 0.88 0.94 0.99 0.80 0.72 0.68 0.70 0.78 0.80 0.85 0.63 0.35 0.23 0.20 0.20 0.21 0.23 0.27 0.37 0.46 0.58 0.69
0.53 0.56 0.60 0.62 0.65 0.64 0.64 0.67 0.72 0.80 0.90 0.89 0.88 0.91 0.91 0.89 0.88 0.89 0.89 0.96 1.01 1.00 0.92 0.86 0.73 0.65 0.63 0.57 0.60 0.60 0.61 0.44 0.25 0.20 0.18 0.16 0.15 0.16 0.17 0.22 0.28 0.35 0.46
0.51 0.57 0.55 0.49 0.45 0.49 0.57 0.67 0.74 0.82 0.90 0.89 0.91 0.85 0.76 0.73 0.77 0.70 0.74 0.82 0.91 0.97 0.85 0.78 0.71 0.67 0.65 0.61 0.56 0.46 0.39 0.29 0.27 0.23 0.19 0.18 0.17 0.17 0.16 0.16 0.19 0.23 0.30
0.48 0.53 0.50 0.44 0.43 0.50 0.60 0.72 0.84 1.01 1.11 1.06 0.95 0.82 0.70 0.67 0.67 0.66 0.70 0.69 0.71 0.81 0.78 0.73 0.70 0.64 0.58 0.52 0.49 0.47 0.40 0.35 0.37 0.34 0.23 0.18 0.17 0.19 0.18 0.17 0.20 0.22 0.29
0.47 0.47 0.48 0.52 0.63 0.72 0.81 0.91 0.96 1.08 1.10 0.99 0.89 0.77 0.67 0.62 0.61 0.64 0.68 0.66 0.57 0.61 0.68 0.67 0.67 0.63 0.57 0.48 0.40 0.41 0.41 0.50 0.54 0.43 0.28 0.20 0.17 0.18 0.19 0.17 0.23 0.31 0.44
0.29 0.38 0.51 0.69 0.80 0.87 0.90 0.96 0.94 0.89 0.88 0.79 0.70 0.60 0.58 0.63 0.64 0.58 0.55 0.54 0.50 0.47 0.46 0.49 0.54 0.56 0.53 0.47 0.40 0.41 0.48 0.55 0.59 0.47 0.39 0.29 0.21 0.17 0.17 0.15 0.16 0.27 0.40
0.24 0.34 0.48 0.58 0.58 0.61 0.72 0.79 0.77 0.74 0.67 0.62 0.54 0.40 0.38 0.49 0.55 0.51 0.45 0.42 0.39 0.38 0.33 0.33 0.36 0.42 0.45 0.42 0.36 0.35 0.40 0.54 0.61 0.62 0.60 0.51 0.40 0.34 0.33 0.31 0.24 0.24 0.27
0.18 0.25 0.32 0.32 0.30 0.28 0.29 0.32 0.37 0.43 0.43 0.41 0.36 0.31 0.32 0.36 0.37 0.35 0.37 0.35 0.32 0.30 0.30 0.31 0.31 0.33 0.38 0.35 0.32 0.34 0.40 0.54 0.74 0.82 0.87 0.88 0.72 0.67 0.66 0.64 0.48 0.27 0.18
0.15 0.19 0.18 0.18 0.21 0.23 0.15 0.11 0.14 0.22 0.25 0.24 0.21 0.21 0.22 0.24 0.23 0.18 0.17 0.18 0.19 0.22 0.25 0.29 0.31 0.29 0.31 0.30 0.28 0.32 0.43 0.68 0.93 1.06 1.08 1.17 0.99 0.83 0.78 0.71 0.58 0.38 0.24
0.19 0.23 0.20 0.18 0.19 0.21 0.15 0.12 0.11 0.13 0.19 0.19 0.15 0.13 0.13 0.18 0.18 0.14 0.09 0.09 0.11 0.13 0.17 0.20 0.26 0.27 0.26 0.26 0.25 0.24 0.27 0.41 0.64 0.76 0.84 1.06 1.09 1.06 0.95 0.71 0.57 0.48 0.37
0.24 0.23 0.22 0.22 0.24 0.26 0.19 0.13 0.12 0.15 0.23 0.23 0.19 0.14 0.10 0.10 0.11 0.11 0.09 0.07 0.06 0.09 0.13 0.15 0.17 0.19 0.20 0.18 0.17 0.16 0.16 0.19 0.27 0.28 0.31 0.58 0.82 0.94 1.07 1.00 0.72 0.61 0.49
0.33 0.29 0.27 0.29 0.32 0.37 0.32 0.20 0.16 0.21 0.32 0.33 0.29 0.21 0.16 0.09 0.05 0.04 0.07 0.07 0.06 0.05 0.05 0.06 0.07 0.09 0.10 0.11 0.11 0.11 0.15 0.16 0.18 0.18 0.13 0.19 0.31 0.48 0.67 0.76 0.71 0.69 0.69